| time (UTC) | temp F | wind direction | speed MPH | gust MPH | rain 1hr in | rain 24hr in | rain mn in | humidity % | barometer mb |
| 20260505061508 | 57 | 355 | 0.0 | 0.0 | 0.00 | 0.00 | 0.00 | 80 | 1011.6 |
| 20260505060002 | 57 | 357 | 0.0 | 0.0 | 0.00 | 0.00 | 0.00 | 79 | 1011.4 |
| 20260505054501 | 58 | 357 | 0.0 | 0.0 | 0.00 | 0.00 | 0.00 | 78 | 1011.2 |
| 20260505053100 | 59 | 357 | 0.0 | 0.0 | 0.00 | 0.00 | 0.00 | 77 | 1011.2 |
| 20260505051613 | 59 | 357 | 0.0 | 0.0 | 0.00 | 0.00 | 0.00 | 76 | 1011.0 |
| 20260505041556 | 63 | 198 | 0.0 | 1.0 | 0.00 | 0.00 | 0.00 | 70 | 1010.5 |
| 20260505040054 | 64 | 68 | 0.0 | 0.0 | 0.00 | 0.00 | 0.00 | 68 | 1010.4 |
| 20260505034553 | 65 | 17 | 0.0 | 1.0 | 0.00 | 0.00 | 0.00 | 66 | 1010.2 |
| 20260505033053 | 66 | 217 | 0.0 | 1.0 | 0.00 | 0.00 | 0.00 | 64 | 1009.9 |
| 20260505031557 | 68 | 227 | 0.0 | 2.0 | 0.00 | 0.00 | 0.00 | 62 | 1009.7 |
| 20260505030052 | 69 | 271 | 0.0 | 1.0 | 0.00 | 0.00 | 0.00 | 60 | 1009.5 |
| 20260505024554 | 70 | 1 | 0.0 | 2.0 | 0.00 | 0.00 | 0.00 | 59 | 1009.2 |
| 20260505023038 | 71 | 356 | 0.0 | 3.0 | 0.00 | 0.00 | 0.00 | 57 | 1009.1 |
| 20260505021538 | 73 | 356 | 1.0 | 6.0 | 0.00 | 0.00 | 0.00 | 55 | 1009.1 |
| 20260505020037 | 74 | 359 | 1.0 | 4.0 | 0.00 | 0.00 | 0.00 | 54 | 1009.0 |
| 20260505014537 | 75 | 4 | 0.0 | 3.0 | 0.00 | 0.00 | 0.00 | 53 | 1009.0 |
| 20260505013035 | 77 | 348 | 0.0 | 8.0 | 0.00 | 0.00 | 0.00 | 52 | 1008.9 |
| 20260505011534 | 78 | 15 | 2.0 | 7.0 | 0.00 | 0.00 | 0.00 | 51 | 1008.9 |
| 20260505010036 | 79 | 352 | 2.0 | 8.0 | 0.00 | 0.00 | 0.00 | 50 | 1008.9 |
| 20260505004534 | 80 | 360 | 2.0 | 8.0 | 0.00 | 0.00 | 0.00 | 49 | 1008.8 |
| 20260505003031 | 81 | 359 | 1.0 | 6.0 | 0.00 | 0.00 | 0.00 | 49 | 1008.9 |
| 20260505001532 | 82 | 348 | 0.0 | 5.0 | 0.00 | 0.00 | 0.00 | 46 | 1008.9 |
| 20260505000036 | 83 | 345 | 0.0 | 3.0 | 0.00 | 0.00 | 0.00 | 46 | 1008.7 |
| 20260504234534 | 83 | 344 | 0.0 | 6.0 | 0.00 | 0.00 | 0.00 | 47 | 1008.8 |
| 20260504233030 | 83 | 360 | 0.0 | 5.0 | 0.00 | 0.00 | 0.00 | 45 | 1008.9 |
| 20260504231529 | 84 | 271 | 0.0 | 8.0 | 0.00 | 0.00 | 0.00 | 45 | 1009.0 |
| 20260504230029 | 84 | 341 | 1.0 | 6.0 | 0.00 | 0.00 | 0.00 | 43 | 1009.2 |
| 20260504224528 | 85 | 358 | 0.0 | 8.0 | 0.00 | 0.00 | 0.00 | 45 | 1009.2 |
| 20260504223027 | 85 | 217 | 0.0 | 5.0 | 0.00 | 0.00 | 0.00 | 45 | 1009.2 |
| 20260504221526 | 85 | 13 | 0.0 | 5.0 | 0.00 | 0.00 | 0.00 | 45 | 1009.4 |
| 20260504220026 | 84 | 1 | 0.0 | 6.0 | 0.00 | 0.00 | 0.00 | 44 | 1009.5 |
| 20260504214524 | 84 | 2 | 0.0 | 4.0 | 0.00 | 0.00 | 0.00 | 48 | 1009.6 |
| 20260504213024 | 85 | 4 | 3.0 | 10.0 | 0.00 | 0.00 | 0.00 | 42 | 1009.7 |
| 20260504211521 | 85 | 28 | 0.0 | 4.0 | 0.00 | 0.00 | 0.00 | 44 | 1009.7 |
| 20260504210019 | 84 | 193 | 0.0 | 3.0 | 0.00 | 0.00 | 0.00 | 45 | 1009.8 |
| 20260504204516 | 83 | 258 | 0.0 | 5.0 | 0.00 | 0.00 | 0.00 | 45 | 1009.8 |
| 20260504203020 | 82 | 359 | 0.0 | 7.0 | 0.00 | 0.00 | 0.00 | 42 | 1010.0 |
| 20260504201510 | 82 | 340 | 0.0 | 3.0 | 0.00 | 0.00 | 0.00 | 47 | 1009.9 |
| 20260504200006 | 81 | 349 | 1.0 | 5.0 | 0.00 | 0.00 | 0.00 | 41 | 1010.1 |
| 20260504194505 | 80 | 21 | 0.0 | 4.0 | 0.00 | 0.00 | 0.00 | 43 | 1010.2 |
| 20260504193059 | 79 | 2 | 1.0 | 5.0 | 0.00 | 0.00 | 0.00 | 46 | 1010.2 |
| 20260504191555 | 78 | 338 | 1.0 | 3.0 | 0.00 | 0.00 | 0.00 | 45 | 1010.4 |
| 20260504190121 | 76 | 354 | 0.0 | 4.0 | 0.00 | 0.00 | 0.00 | 46 | 1010.5 |
| 20260504184549 | 75 | 357 | 1.0 | 3.0 | 0.00 | 0.00 | 0.00 | 46 | 1010.7 |
| 20260504183046 | 74 | 359 | 0.0 | 7.0 | 0.00 | 0.00 | 0.00 | 50 | 1010.7 |
| 20260504181542 | 73 | 342 | 0.0 | 2.0 | 0.00 | 0.00 | 0.00 | 53 | 1010.7 |
| 20260504180039 | 72 | 350 | 0.0 | 2.0 | 0.00 | 0.00 | 0.00 | 56 | 1010.7 |
| 20260504174533 | 70 | 355 | 0.0 | 3.0 | 0.00 | 0.00 | 0.00 | 58 | 1010.7 |
| 20260504173029 | 69 | 359 | 0.0 | 5.0 | 0.00 | 0.00 | 0.00 | 59 | 1010.8 |
| 20260504171526 | 68 | 319 | 0.0 | 4.0 | 0.00 | 0.00 | 0.00 | 61 | 1010.7 |
| 20260504081513 | 58 | 358 | 0.0 | 0.0 | 0.00 | 0.00 | 0.00 | 79 | 1009.0 |